Year,Month,Day,Hour,Minute,Value (Times are PST for insolation in W/m^2)
2010,10,02,00,00,0.00
2010,10,02,00,01,0.00
2010,10,02,00,02,0.00
2010,10,02,00,03,0.00
2010,10,02,00,04,0.00
2010,10,02,00,05,0.00
2010,10,02,00,06,0.00
2010,10,02,00,07,0.00
2010,10,02,00,08,0.00
2010,10,02,00,09,0.00
2010,10,02,00,10,0.00
2010,10,02,00,11,0.00
2010,10,02,00,12,0.00
2010,10,02,00,13,0.00
2010,10,02,00,14,0.00
2010,10,02,00,15,0.00
2010,10,02,00,16,0.00
2010,10,02,00,17,0.00
2010,10,02,00,18,0.00
2010,10,02,00,19,0.00
2010,10,02,00,20,0.00
2010,10,02,00,21,0.00
2010,10,02,00,22,0.00
2010,10,02,00,23,0.00
2010,10,02,00,24,0.00
2010,10,02,00,25,0.00
2010,10,02,00,26,0.00
2010,10,02,00,27,0.00
2010,10,02,00,28,0.00
2010,10,02,00,29,0.00
2010,10,02,00,30,0.00
2010,10,02,00,31,0.00
2010,10,02,00,32,0.00
2010,10,02,00,33,0.00
2010,10,02,00,34,0.00
2010,10,02,00,35,0.00
2010,10,02,00,36,0.00
2010,10,02,00,37,0.00
2010,10,02,00,38,0.00
2010,10,02,00,39,0.00
2010,10,02,00,40,0.00
2010,10,02,00,41,0.00
2010,10,02,00,42,0.00
2010,10,02,00,43,0.00
2010,10,02,00,44,0.00
2010,10,02,00,45,0.00
2010,10,02,00,46,0.00
2010,10,02,00,47,0.00
2010,10,02,00,48,0.00
2010,10,02,00,49,0.00
2010,10,02,00,50,0.00
2010,10,02,00,51,0.00
2010,10,02,00,52,0.00
2010,10,02,00,53,0.00
2010,10,02,00,54,0.00
2010,10,02,00,55,0.00
2010,10,02,00,56,0.00
2010,10,02,00,57,0.00
2010,10,02,00,58,0.00
2010,10,02,00,59,0.00
2010,10,02,01,00,0.00
2010,10,02,01,01,0.00
2010,10,02,01,02,0.00
2010,10,02,01,03,0.00
2010,10,02,01,04,0.00
2010,10,02,01,05,0.00
2010,10,02,01,06,0.00
2010,10,02,01,07,0.00
2010,10,02,01,08,0.00
2010,10,02,01,09,0.00
2010,10,02,01,10,0.00
2010,10,02,01,11,0.00
2010,10,02,01,12,0.00
2010,10,02,01,13,0.00
2010,10,02,01,14,0.00
2010,10,02,01,15,0.00
2010,10,02,01,16,0.00
2010,10,02,01,17,0.00
2010,10,02,01,18,0.00
2010,10,02,01,19,0.00
2010,10,02,01,20,0.00
2010,10,02,01,21,0.00
2010,10,02,01,22,0.00
2010,10,02,01,23,0.00
2010,10,02,01,24,0.00
2010,10,02,01,25,0.00
2010,10,02,01,26,0.00
2010,10,02,01,27,0.00
2010,10,02,01,28,0.00
2010,10,02,01,29,0.00
2010,10,02,01,30,0.00
2010,10,02,01,31,0.00
2010,10,02,01,32,0.00
2010,10,02,01,33,0.00
2010,10,02,01,34,0.00
2010,10,02,01,35,0.00
2010,10,02,01,36,0.00
2010,10,02,01,37,0.00
2010,10,02,01,38,0.00
2010,10,02,01,39,0.00
2010,10,02,01,40,0.00
2010,10,02,01,41,0.00
2010,10,02,01,42,0.00
2010,10,02,01,43,0.00
2010,10,02,01,44,0.00
2010,10,02,01,45,0.00
2010,10,02,01,46,0.00
2010,10,02,01,47,0.00
2010,10,02,01,48,0.00
2010,10,02,01,49,0.00
2010,10,02,01,50,0.00
2010,10,02,01,51,0.00
2010,10,02,01,52,0.00
2010,10,02,01,53,0.00
2010,10,02,01,54,0.00
2010,10,02,01,55,0.00
2010,10,02,01,56,0.00
2010,10,02,01,57,0.00
2010,10,02,01,58,0.00
2010,10,02,01,59,0.00
2010,10,02,02,00,0.00
2010,10,02,02,01,0.00
2010,10,02,02,02,0.00
2010,10,02,02,03,0.00
2010,10,02,02,04,0.00
2010,10,02,02,05,0.00
2010,10,02,02,06,0.00
2010,10,02,02,07,0.00
2010,10,02,02,08,0.00
2010,10,02,02,09,0.00
2010,10,02,02,10,0.00
2010,10,02,02,11,0.00
2010,10,02,02,12,0.00
2010,10,02,02,13,0.00
2010,10,02,02,14,0.00
2010,10,02,02,15,0.00
2010,10,02,02,16,0.00
2010,10,02,02,17,0.00
2010,10,02,02,18,0.00
2010,10,02,02,19,0.00
2010,10,02,02,20,0.00
2010,10,02,02,21,0.00
2010,10,02,02,22,0.00
2010,10,02,02,23,0.00
2010,10,02,02,24,0.00
2010,10,02,02,25,0.00
2010,10,02,02,26,0.00
2010,10,02,02,27,0.00
2010,10,02,02,28,0.00
2010,10,02,02,29,0.00
2010,10,02,02,30,0.00
2010,10,02,02,31,0.00
2010,10,02,02,32,0.00
2010,10,02,02,33,0.00
2010,10,02,02,34,0.00
2010,10,02,02,35,0.00
2010,10,02,02,36,0.00
2010,10,02,02,37,0.00
2010,10,02,02,38,0.00
2010,10,02,02,39,0.00
2010,10,02,02,40,0.00
2010,10,02,02,41,0.00
2010,10,02,02,42,0.00
2010,10,02,02,43,0.00
2010,10,02,02,44,0.00
2010,10,02,02,45,0.00
2010,10,02,02,46,0.00
2010,10,02,02,47,0.00
2010,10,02,02,48,0.00
2010,10,02,02,49,0.00
2010,10,02,02,50,0.00
2010,10,02,02,51,0.00
2010,10,02,02,52,0.00
2010,10,02,02,53,0.00
2010,10,02,02,54,0.00
2010,10,02,02,55,0.00
2010,10,02,02,56,0.00
2010,10,02,02,57,0.00
2010,10,02,02,58,0.00
2010,10,02,02,59,0.00
2010,10,02,03,00,0.00
2010,10,02,03,01,0.00
2010,10,02,03,06,0.00
2010,10,02,03,07,0.00
2010,10,02,03,08,0.00
2010,10,02,03,09,0.00
2010,10,02,03,10,0.00
2010,10,02,03,11,0.00
2010,10,02,03,12,0.00
2010,10,02,03,13,0.00
2010,10,02,03,14,0.00
2010,10,02,03,15,0.00
2010,10,02,03,16,0.00
2010,10,02,03,17,0.00
2010,10,02,03,18,0.00
2010,10,02,03,19,0.00
2010,10,02,03,20,0.00
2010,10,02,03,21,0.00
2010,10,02,03,22,0.00
2010,10,02,03,23,0.00
2010,10,02,03,24,0.00
2010,10,02,03,25,0.00
2010,10,02,03,26,0.00
2010,10,02,03,27,0.00
2010,10,02,03,28,0.00
2010,10,02,03,29,0.00
2010,10,02,03,30,0.00
2010,10,02,03,31,0.00
2010,10,02,03,32,0.00
2010,10,02,03,33,0.00
2010,10,02,03,34,0.00
2010,10,02,03,35,0.00
2010,10,02,03,36,0.00
2010,10,02,03,37,0.00
2010,10,02,03,38,0.00
2010,10,02,03,39,0.00
2010,10,02,03,40,0.00
2010,10,02,03,41,0.00
2010,10,02,03,42,0.00
2010,10,02,03,43,0.00
2010,10,02,03,44,0.00
2010,10,02,03,45,0.00
2010,10,02,03,46,0.00
2010,10,02,03,47,0.00
2010,10,02,03,48,0.00
2010,10,02,03,49,0.00
2010,10,02,03,50,0.00
2010,10,02,03,51,0.00
2010,10,02,03,52,0.00
2010,10,02,03,53,0.00
2010,10,02,03,54,0.00
2010,10,02,03,55,0.00
2010,10,02,03,56,0.00
2010,10,02,03,57,0.00
2010,10,02,03,58,0.00
2010,10,02,03,59,0.00
2010,10,02,04,00,0.00
2010,10,02,04,01,0.00
2010,10,02,04,02,0.00
2010,10,02,04,03,0.00
2010,10,02,04,04,0.00
2010,10,02,04,05,0.00
2010,10,02,04,06,0.00
2010,10,02,04,07,0.00
2010,10,02,04,08,0.00
2010,10,02,04,09,0.00
2010,10,02,04,10,0.00
2010,10,02,04,11,0.00
2010,10,02,04,12,0.00
2010,10,02,04,13,0.00
2010,10,02,04,14,0.00
2010,10,02,04,15,0.00
2010,10,02,04,16,0.00
2010,10,02,04,17,0.00
2010,10,02,04,18,0.00
2010,10,02,04,19,0.00
2010,10,02,04,20,0.00
2010,10,02,04,21,0.00
2010,10,02,04,22,0.00
2010,10,02,04,23,0.00
2010,10,02,04,24,0.00
2010,10,02,04,25,0.00
2010,10,02,04,26,0.00
2010,10,02,04,27,0.00
2010,10,02,04,28,0.00
2010,10,02,04,29,0.00
2010,10,02,04,30,0.00
2010,10,02,04,31,0.00
2010,10,02,04,32,0.00
2010,10,02,04,33,0.00
2010,10,02,04,34,0.00
2010,10,02,04,35,0.00
2010,10,02,04,36,0.00
2010,10,02,04,37,0.00
2010,10,02,04,38,0.00
2010,10,02,04,39,0.00
2010,10,02,04,40,0.00
2010,10,02,04,41,0.00
2010,10,02,04,42,0.00
2010,10,02,04,43,0.00
2010,10,02,04,44,0.00
2010,10,02,04,45,0.00
2010,10,02,04,46,0.00
2010,10,02,04,47,0.00
2010,10,02,04,48,0.00
2010,10,02,04,49,0.00
2010,10,02,04,50,0.00
2010,10,02,04,51,0.00
2010,10,02,04,52,0.00
2010,10,02,04,53,0.00
2010,10,02,04,54,0.00
2010,10,02,04,55,0.00
2010,10,02,04,56,0.00
2010,10,02,04,57,0.00
2010,10,02,04,58,0.00
2010,10,02,04,59,0.00
2010,10,02,05,00,0.00
2010,10,02,05,01,0.00
2010,10,02,05,02,0.00
2010,10,02,05,03,0.00
2010,10,02,05,04,0.00
2010,10,02,05,05,0.00
2010,10,02,05,06,0.00
2010,10,02,05,07,0.00
2010,10,02,05,08,0.00
2010,10,02,05,09,0.00
2010,10,02,05,10,0.00
2010,10,02,05,11,0.00
2010,10,02,05,12,0.00
2010,10,02,05,13,0.00
2010,10,02,05,14,0.00
2010,10,02,05,15,0.00
2010,10,02,05,16,0.00
2010,10,02,05,17,0.00
2010,10,02,05,18,0.00
2010,10,02,05,19,0.00
2010,10,02,05,20,0.00
2010,10,02,05,21,0.00
2010,10,02,05,22,0.00
2010,10,02,05,23,0.00
2010,10,02,05,24,0.00
2010,10,02,05,25,0.00
2010,10,02,05,26,0.00
2010,10,02,05,27,0.00
2010,10,02,05,28,0.00
2010,10,02,05,29,0.00
2010,10,02,05,30,0.00
2010,10,02,05,31,0.00
2010,10,02,05,32,0.00
2010,10,02,05,33,0.00
2010,10,02,05,34,0.00
2010,10,02,05,35,0.00
2010,10,02,05,36,0.00
2010,10,02,05,37,0.00
2010,10,02,05,38,0.00
2010,10,02,05,39,0.00
2010,10,02,05,40,0.00
2010,10,02,05,41,0.00
2010,10,02,05,42,0.00
2010,10,02,05,43,0.00
2010,10,02,05,44,0.00
2010,10,02,05,45,0.00
2010,10,02,05,46,0.00
2010,10,02,05,47,0.00
2010,10,02,05,48,0.00
2010,10,02,05,49,0.00
2010,10,02,05,50,0.00
2010,10,02,05,51,0.00
2010,10,02,05,52,0.00
2010,10,02,05,53,0.00
2010,10,02,05,54,0.00
2010,10,02,05,55,0.00
2010,10,02,05,56,0.00
2010,10,02,05,57,0.00
2010,10,02,05,58,0.00
2010,10,02,05,59,0.00
2010,10,02,06,00,0.00
2010,10,02,06,01,0.00
2010,10,02,06,02,0.00
2010,10,02,06,03,0.00
2010,10,02,06,04,0.00
2010,10,02,06,05,0.00
2010,10,02,06,06,0.00
2010,10,02,06,07,0.00
2010,10,02,06,08,0.00
2010,10,02,06,09,0.00
2010,10,02,06,10,0.00
2010,10,02,06,11,0.00
2010,10,02,06,12,0.00
2010,10,02,06,13,0.00
2010,10,02,06,14,0.00
2010,10,02,06,15,0.00
2010,10,02,06,16,0.00
2010,10,02,06,17,0.00
2010,10,02,06,18,0.00
2010,10,02,06,19,0.00
2010,10,02,06,20,0.00
2010,10,02,06,21,0.00
2010,10,02,06,22,0.00
2010,10,02,06,23,0.00
2010,10,02,06,24,0.00
2010,10,02,06,25,0.00
2010,10,02,06,26,0.00
2010,10,02,06,27,0.00
2010,10,02,06,28,0.00
2010,10,02,06,29,0.00
2010,10,02,06,30,0.00
2010,10,02,06,31,0.00
2010,10,02,06,32,0.00
2010,10,02,06,33,0.00
2010,10,02,06,34,0.00
2010,10,02,06,35,0.00
2010,10,02,06,36,0.00
2010,10,02,06,37,0.00
2010,10,02,06,38,0.00
2010,10,02,06,39,0.00
2010,10,02,06,40,0.00
2010,10,02,06,41,0.00
2010,10,02,06,42,0.00
2010,10,02,06,43,0.00
2010,10,02,06,44,0.00
2010,10,02,06,45,0.00
2010,10,02,06,46,0.00
2010,10,02,06,47,0.00
2010,10,02,06,48,0.00
2010,10,02,06,49,0.00
2010,10,02,06,50,0.00
2010,10,02,06,51,0.00
2010,10,02,06,52,0.00
2010,10,02,06,53,0.00
2010,10,02,06,54,0.00
2010,10,02,06,55,0.00
2010,10,02,06,56,0.00
2010,10,02,06,57,0.00
2010,10,02,06,58,0.00
2010,10,02,06,59,0.00
2010,10,02,07,00,0.00
2010,10,02,07,01,0.00
2010,10,02,07,02,0.00
2010,10,02,07,03,0.00
2010,10,02,07,04,0.00
2010,10,02,07,05,0.00
2010,10,02,07,06,0.00
2010,10,02,07,07,0.00
2010,10,02,07,08,0.00
2010,10,02,07,09,0.00
2010,10,02,07,10,0.00
2010,10,02,07,11,0.00
2010,10,02,07,12,0.00
2010,10,02,07,13,0.00
2010,10,02,07,14,0.00
2010,10,02,07,15,0.00
2010,10,02,07,16,0.00
2010,10,02,07,17,0.00
2010,10,02,07,18,0.00
2010,10,02,07,19,0.00
2010,10,02,07,20,0.00
2010,10,02,07,21,0.00
2010,10,02,07,22,0.00
2010,10,02,07,23,0.00
2010,10,02,07,24,0.80
2010,10,02,07,25,5.00
2010,10,02,07,26,5.00
2010,10,02,07,27,5.00
2010,10,02,07,28,5.90
2010,10,02,07,29,7.00
2010,10,02,07,30,7.00
2010,10,02,07,31,7.00
2010,10,02,07,32,7.00
2010,10,02,07,33,7.00
2010,10,02,07,34,7.00
2010,10,02,07,35,7.00
2010,10,02,07,36,7.40
2010,10,02,07,37,9.00
2010,10,02,07,38,9.00
2010,10,02,07,39,9.00
2010,10,02,07,40,10.10
2010,10,02,07,41,11.00
2010,10,02,07,42,11.00
2010,10,02,07,43,11.00
2010,10,02,07,44,11.00
2010,10,02,07,45,11.00
2010,10,02,07,46,11.00
2010,10,02,07,47,11.00
2010,10,02,07,48,11.00
2010,10,02,07,49,11.00
2010,10,02,07,50,11.00
2010,10,02,07,51,11.00
2010,10,02,07,52,11.00
2010,10,02,07,53,11.80
2010,10,02,07,54,12.00
2010,10,02,07,55,12.00
2010,10,02,07,56,12.00
2010,10,02,07,57,12.30
2010,10,02,07,58,14.00
2010,10,02,07,59,14.60
2010,10,02,08,00,16.80
2010,10,02,08,01,18.00
2010,10,02,08,02,18.60
2010,10,02,08,03,19.00
2010,10,02,08,04,19.00
2010,10,02,08,05,20.70
2010,10,02,08,06,21.00
2010,10,02,08,07,23.00
2010,10,02,08,08,23.30
2010,10,02,08,09,25.20
2010,10,02,08,10,26.60
2010,10,02,08,11,28.00
2010,10,02,08,12,28.90
2010,10,02,08,13,30.00
2010,10,02,08,14,30.00
2010,10,02,08,15,30.00
2010,10,02,08,16,30.00
2010,10,02,08,17,31.80
2010,10,02,08,18,32.00
2010,10,02,08,19,33.00
2010,10,02,08,20,33.00
2010,10,02,08,21,33.50
2010,10,02,08,22,35.80
2010,10,02,08,23,37.90
2010,10,02,08,24,39.60
2010,10,02,08,25,41.30
2010,10,02,08,26,42.00
2010,10,02,08,27,42.00
2010,10,02,08,28,42.00
2010,10,02,08,29,42.00
2010,10,02,08,30,42.00
2010,10,02,08,31,42.00
2010,10,02,08,32,42.00
2010,10,02,08,33,42.00
2010,10,02,08,34,42.00
2010,10,02,08,35,42.00
2010,10,02,08,36,42.00
2010,10,02,08,37,42.00
2010,10,02,08,38,42.00
2010,10,02,08,39,42.00
2010,10,02,08,40,41.90
2010,10,02,08,41,40.00
2010,10,02,08,42,40.00
2010,10,02,08,43,39.70
2010,10,02,08,44,39.00
2010,10,02,08,45,39.00
2010,10,02,08,46,39.00
2010,10,02,08,47,39.00
2010,10,02,08,48,39.00
2010,10,02,08,49,37.40
2010,10,02,08,50,37.00
2010,10,02,08,51,38.90
2010,10,02,08,52,39.10
2010,10,02,08,53,40.40
2010,10,02,08,54,43.10
2010,10,02,08,55,46.30
2010,10,02,08,56,48.90
2010,10,02,08,57,52.60
2010,10,02,08,58,55.20
2010,10,02,08,59,57.40
2010,10,02,09,00,58.00
2010,10,02,09,01,59.80
2010,10,02,09,02,60.00
2010,10,02,09,03,62.10
2010,10,02,09,04,63.80
2010,10,02,09,05,67.60
2010,10,02,09,06,70.10
2010,10,02,09,07,72.90
2010,10,02,09,08,74.00
2010,10,02,09,09,74.00
2010,10,02,09,10,74.00
2010,10,02,09,11,75.50
2010,10,02,09,12,76.90
2010,10,02,09,13,78.90
2010,10,02,09,14,83.30
2010,10,02,09,15,86.80
2010,10,02,09,16,90.00
2010,10,02,09,17,90.00
2010,10,02,09,18,88.20
2010,10,02,09,19,86.00
2010,10,02,09,20,86.00
2010,10,02,09,21,86.00
2010,10,02,09,22,87.60
2010,10,02,09,23,88.00
2010,10,02,09,24,89.90
2010,10,02,09,25,91.30
2010,10,02,09,26,93.00
2010,10,02,09,27,92.50
2010,10,02,09,28,91.00
2010,10,02,09,29,90.60
2010,10,02,09,30,90.00
2010,10,02,09,31,90.60
2010,10,02,09,32,91.00
2010,10,02,09,33,91.00
2010,10,02,09,34,92.70
2010,10,02,09,35,96.80
2010,10,02,09,36,100.20
2010,10,02,09,37,102.00
2010,10,02,09,38,102.60
2010,10,02,09,39,105.80
2010,10,02,09,40,108.20
2010,10,02,09,41,105.50
2010,10,02,09,42,107.20
2010,10,02,09,43,104.10
2010,10,02,09,44,100.40
2010,10,02,09,45,100.00
2010,10,02,09,46,103.80
2010,10,02,09,47,107.20
2010,10,02,09,48,108.60
2010,10,02,09,49,106.50
2010,10,02,09,50,104.70
2010,10,02,09,51,104.00
2010,10,02,09,52,105.50
2010,10,02,09,53,109.60
2010,10,02,09,54,113.10
2010,10,02,09,55,114.00
2010,10,02,09,56,115.70
2010,10,02,09,57,116.00
2010,10,02,09,58,118.00
2010,10,02,09,59,118.40
2010,10,02,10,00,120.30
2010,10,02,10,01,123.30
2010,10,02,10,02,129.10
2010,10,02,10,03,133.00
2010,10,02,10,04,132.80
2010,10,02,10,05,130.60
2010,10,02,10,06,128.40
2010,10,02,10,07,128.00
2010,10,02,10,08,131.80
2010,10,02,10,09,135.40
2010,10,02,10,10,139.30
2010,10,02,10,11,141.00
2010,10,02,10,12,141.00
2010,10,02,10,13,139.30
2010,10,02,10,14,136.00
2010,10,02,10,15,135.00
2010,10,02,10,16,135.00
2010,10,02,10,17,135.00
2010,10,02,10,18,136.70
2010,10,02,10,19,138.90
2010,10,02,10,20,140.10
2010,10,02,10,21,149.90
2010,10,02,10,22,155.80
2010,10,02,10,23,159.40
2010,10,02,10,24,162.00
2010,10,02,10,25,162.50
2010,10,02,10,26,164.20
2010,10,02,10,27,165.00
2010,10,02,10,28,169.60
2010,10,02,10,29,183.60
2010,10,02,10,30,248.10
2010,10,02,10,31,212.30
2010,10,02,10,32,205.70
2010,10,02,10,33,206.50
2010,10,02,10,34,206.30
2010,10,02,10,35,190.30
2010,10,02,10,36,191.50
2010,10,02,10,37,197.30
2010,10,02,10,38,219.00
2010,10,02,10,39,257.40
2010,10,02,10,40,244.80
2010,10,02,10,41,245.70
2010,10,02,10,42,249.20
2010,10,02,10,43,268.00
2010,10,02,10,44,209.70
2010,10,02,10,45,206.30
2010,10,02,10,46,207.00
2010,10,02,10,47,207.00
2010,10,02,10,48,203.10
2010,10,02,10,49,190.40
2010,10,02,10,50,231.80
2010,10,02,10,51,284.80
2010,10,02,10,52,197.90
2010,10,02,10,53,193.00
2010,10,02,10,54,193.00
2010,10,02,10,55,201.40
2010,10,02,10,56,222.80
2010,10,02,10,57,186.80
2010,10,02,10,58,144.00
2010,10,02,10,59,335.60
2010,10,02,11,00,417.80
2010,10,02,11,01,387.00
2010,10,02,11,02,387.00
2010,10,02,11,03,387.00
2010,10,02,11,04,483.00
2010,10,02,11,05,483.00
2010,10,02,11,06,476.50
2010,10,02,11,07,457.70
2010,10,02,11,08,472.90
2010,10,02,11,09,498.30
2010,10,02,11,10,504.00
2010,10,02,11,11,504.00
2010,10,02,11,12,504.00
2010,10,02,11,13,319.50
2010,10,02,11,14,377.00
2010,10,02,11,15,401.60
2010,10,02,11,16,533.20
2010,10,02,11,17,534.50
2010,10,02,11,18,542.00
2010,10,02,11,19,561.30
2010,10,02,11,20,572.50
2010,10,02,11,21,587.20
2010,10,02,11,22,605.10
2010,10,02,11,23,616.60
2010,10,02,11,24,566.30
2010,10,02,11,25,557.00
2010,10,02,11,26,251.10
2010,10,02,11,27,315.00
2010,10,02,11,28,385.80
2010,10,02,11,29,604.00
2010,10,02,11,30,617.00
2010,10,02,11,31,508.00
2010,10,02,11,32,434.90
2010,10,02,11,33,420.70
2010,10,02,11,34,414.50
2010,10,02,11,35,420.00
2010,10,02,11,36,588.60
2010,10,02,11,37,575.00
2010,10,02,11,38,544.20
2010,10,02,11,39,380.00
2010,10,02,11,40,467.90
2010,10,02,11,41,634.80
2010,10,02,11,42,642.40
2010,10,02,11,43,643.90
2010,10,02,11,44,646.90
2010,10,02,11,45,595.90
2010,10,02,11,46,577.00
2010,10,02,11,47,577.00
2010,10,02,11,48,577.00
2010,10,02,11,49,596.50
2010,10,02,11,50,707.00
2010,10,02,11,51,568.40
2010,10,02,11,52,311.00
2010,10,02,11,53,384.00
2010,10,02,11,54,457.00
2010,10,02,11,55,457.00
2010,10,02,11,56,457.00
2010,10,02,11,57,340.50
2010,10,02,11,58,302.90
2010,10,02,11,59,324.60
2010,10,02,12,00,318.00
2010,10,02,12,01,318.00
2010,10,02,12,02,312.00
2010,10,02,12,03,293.40
2010,10,02,12,04,288.50
2010,10,02,12,05,292.00
2010,10,02,12,06,292.00
2010,10,02,12,07,290.50
2010,10,02,12,08,340.50
2010,10,02,12,09,351.80
2010,10,02,12,10,352.00
2010,10,02,12,11,340.00
2010,10,02,12,12,276.00
2010,10,02,12,13,276.00
2010,10,02,12,14,276.00
2010,10,02,12,15,330.00
2010,10,02,12,16,396.00
2010,10,02,12,17,591.20
2010,10,02,12,18,689.20
2010,10,02,12,19,666.30
2010,10,02,12,20,653.20
2010,10,02,12,21,659.80
2010,10,02,12,22,645.00
2010,10,02,12,23,645.00
2010,10,02,12,24,633.90
2010,10,02,12,25,610.00
2010,10,02,12,26,610.00
2010,10,02,12,27,611.10
2010,10,02,12,28,575.40
2010,10,02,12,29,554.00
2010,10,02,12,30,271.10
2010,10,02,12,31,218.00
2010,10,02,12,32,583.30
2010,10,02,12,33,541.00
2010,10,02,12,34,541.00
2010,10,02,12,35,551.20
2010,10,02,12,36,573.20
2010,10,02,12,37,571.30
2010,10,02,12,38,571.30
2010,10,02,12,39,568.80
2010,10,02,12,40,571.50
2010,10,02,12,41,571.40
2010,10,02,12,42,572.80
2010,10,02,12,43,573.10
2010,10,02,12,44,574.40
2010,10,02,12,45,570.80
2010,10,02,12,46,569.40
2010,10,02,12,47,568.70
2010,10,02,12,48,570.50
2010,10,02,12,49,571.00
2010,10,02,12,50,572.30
2010,10,02,12,51,573.00
2010,10,02,12,52,571.40
2010,10,02,12,53,570.10
2010,10,02,12,54,566.40
2010,10,02,12,55,569.80
2010,10,02,12,56,568.80
2010,10,02,12,57,571.00
2010,10,02,12,58,571.00
2010,10,02,12,59,571.00
2010,10,02,13,00,571.00
2010,10,02,13,01,570.40
2010,10,02,13,02,570.70
2010,10,02,13,03,571.00
2010,10,02,13,04,571.00
2010,10,02,13,05,571.00
2010,10,02,13,06,570.80
2010,10,02,13,07,570.60
2010,10,02,13,08,572.40
2010,10,02,13,09,571.00
2010,10,02,13,10,571.00
2010,10,02,13,11,570.40
2010,10,02,13,12,570.00
2010,10,02,13,13,570.70
2010,10,02,13,14,571.00
2010,10,02,13,15,570.10
2010,10,02,13,16,568.00
2010,10,02,13,17,568.30
2010,10,02,13,18,570.80
2010,10,02,13,19,570.00
2010,10,02,13,20,570.40
2010,10,02,13,21,571.00
2010,10,02,13,22,570.40
2010,10,02,13,23,570.60
2010,10,02,13,24,570.30
2010,10,02,13,25,570.00
2010,10,02,13,26,570.00
2010,10,02,13,27,570.00
2010,10,02,13,28,570.90
2010,10,02,13,29,569.60
2010,10,02,13,30,568.00
2010,10,02,13,31,568.00
2010,10,02,13,32,569.50
2010,10,02,13,33,571.00
2010,10,02,13,34,568.00
2010,10,02,13,35,564.60
2010,10,02,13,36,567.20
2010,10,02,13,37,568.00
2010,10,02,13,38,566.00
2010,10,02,13,39,563.70
2010,10,02,13,40,561.40
2010,10,02,13,41,563.30
2010,10,02,13,42,564.00
2010,10,02,13,43,564.00
2010,10,02,13,44,564.00
2010,10,02,13,45,563.40
2010,10,02,13,46,561.60
2010,10,02,13,47,561.00
2010,10,02,13,48,559.20
2010,10,02,13,49,557.10
2010,10,02,13,50,555.30
2010,10,02,13,51,557.00
2010,10,02,13,52,557.60
2010,10,02,13,53,559.00
2010,10,02,13,54,556.80
2010,10,02,13,55,554.50
2010,10,02,13,56,553.10
2010,10,02,13,57,553.40
2010,10,02,13,58,561.10
2010,10,02,13,59,557.60
2010,10,02,14,00,555.10
2010,10,02,14,01,554.80
2010,10,02,14,02,554.20
2010,10,02,14,03,554.10
2010,10,02,14,04,552.70
2010,10,02,14,05,555.30
2010,10,02,14,06,554.40
2010,10,02,14,07,550.80
2010,10,02,14,08,550.00
2010,10,02,14,09,548.40
2010,10,02,14,10,548.00
2010,10,02,14,11,547.10
2010,10,02,14,12,546.70
2010,10,02,14,13,545.00
2010,10,02,14,14,545.00
2010,10,02,14,15,545.00
2010,10,02,14,16,543.20
2010,10,02,14,17,544.30
2010,10,02,14,18,544.50
2010,10,02,14,19,544.30
2010,10,02,14,20,543.50
2010,10,02,14,21,543.00
2010,10,02,14,22,540.20
2010,10,02,14,23,540.00
2010,10,02,14,24,539.60
2010,10,02,14,25,538.00
2010,10,02,14,26,538.00
2010,10,02,14,27,538.00
2010,10,02,14,28,535.90
2010,10,02,14,29,534.00
2010,10,02,14,30,533.30
2010,10,02,14,31,531.50
2010,10,02,14,32,531.00
2010,10,02,14,33,531.00
2010,10,02,14,34,529.00
2010,10,02,14,35,528.60
2010,10,02,14,36,526.70
2010,10,02,14,37,525.20
2010,10,02,14,38,524.00
2010,10,02,14,39,523.00
2010,10,02,14,40,522.00
2010,10,02,14,41,520.70
2010,10,02,14,42,519.20
2010,10,02,14,43,517.20
2010,10,02,14,44,517.00
2010,10,02,14,45,517.00
2010,10,02,14,46,516.60
2010,10,02,14,47,514.50
2010,10,02,14,48,512.70
2010,10,02,14,49,512.00
2010,10,02,14,50,510.90
2010,10,02,14,51,510.00
2010,10,02,14,52,508.60
2010,10,02,14,53,506.40
2010,10,02,14,54,506.00
2010,10,02,14,55,504.10
2010,10,02,14,56,502.80
2010,10,02,14,57,500.60
2010,10,02,14,58,498.50
2010,10,02,14,59,497.00
2010,10,02,15,00,497.00
2010,10,02,15,01,495.40
2010,10,02,15,02,492.80
2010,10,02,15,03,492.00
2010,10,02,15,04,490.40
2010,10,02,15,05,487.50
2010,10,02,15,06,487.00
2010,10,02,15,07,484.90
2010,10,02,15,08,483.00
2010,10,02,15,09,482.70
2010,10,02,15,10,481.30
2010,10,02,15,11,480.00
2010,10,02,15,12,477.50
2010,10,02,15,13,454.20
2010,10,02,15,14,423.40
2010,10,02,15,15,448.60
2010,10,02,15,16,414.90
2010,10,02,15,17,318.60
2010,10,02,15,18,296.20
2010,10,02,15,19,332.00
2010,10,02,15,20,344.10
2010,10,02,15,21,386.20
2010,10,02,15,22,404.00
2010,10,02,15,23,404.00
2010,10,02,15,24,218.20
2010,10,02,15,25,83.00
2010,10,02,15,26,81.50
2010,10,02,15,27,73.40
2010,10,02,15,28,70.20
2010,10,02,15,29,71.70
2010,10,02,15,30,69.00
2010,10,02,15,31,69.00
2010,10,02,15,32,83.00
2010,10,02,15,33,141.40
2010,10,02,15,34,190.70
2010,10,02,15,35,179.40
2010,10,02,15,36,173.60
2010,10,02,15,37,198.50
2010,10,02,15,38,202.60
2010,10,02,15,39,129.10
2010,10,02,15,40,103.60
2010,10,02,15,41,87.50
2010,10,02,15,42,72.20
2010,10,02,15,43,67.60
2010,10,02,15,44,67.40
2010,10,02,15,45,65.00
2010,10,02,15,46,65.00
2010,10,02,15,47,65.00
2010,10,02,15,48,65.00
2010,10,02,15,49,65.00
2010,10,02,15,50,63.20
2010,10,02,15,51,65.00
2010,10,02,15,52,64.60
2010,10,02,15,53,63.00
2010,10,02,15,54,66.80
2010,10,02,15,55,77.90
2010,10,02,15,56,83.00
2010,10,02,15,57,79.20
2010,10,02,15,58,68.60
2010,10,02,15,59,63.50
2010,10,02,16,00,62.20
2010,10,02,16,01,62.00
2010,10,02,16,02,62.00
2010,10,02,16,03,62.00
2010,10,02,16,04,61.50
2010,10,02,16,05,60.00
2010,10,02,16,06,60.00
2010,10,02,16,07,60.00
2010,10,02,16,08,61.10
2010,10,02,16,09,60.70
2010,10,02,16,10,60.00
2010,10,02,16,11,60.00
2010,10,02,16,12,78.10
2010,10,02,16,13,63.40
2010,10,02,16,14,75.40
2010,10,02,16,15,73.50
2010,10,02,16,16,79.00
2010,10,02,16,17,142.20
2010,10,02,16,18,237.00
2010,10,02,16,19,297.00
2010,10,02,16,20,343.90
2010,10,02,16,21,341.50
2010,10,02,16,22,339.30
2010,10,02,16,23,338.00
2010,10,02,16,24,335.90
2010,10,02,16,25,334.00
2010,10,02,16,26,333.20
2010,10,02,16,27,329.70
2010,10,02,16,28,327.40
2010,10,02,16,29,324.10
2010,10,02,16,30,322.50
2010,10,02,16,31,319.40
2010,10,02,16,32,315.80
2010,10,02,16,33,315.00
2010,10,02,16,34,313.20
2010,10,02,16,35,310.80
2010,10,02,16,36,307.70
2010,10,02,16,37,305.60
2010,10,02,16,38,303.10
2010,10,02,16,39,300.20
2010,10,02,16,40,297.20
2010,10,02,16,41,295.00
2010,10,02,16,42,294.40
2010,10,02,16,43,292.50
2010,10,02,16,44,288.60
2010,10,02,16,45,287.00
2010,10,02,16,46,284.80
2010,10,02,16,47,280.70
2010,10,02,16,48,278.40
2010,10,02,16,49,275.30
2010,10,02,16,50,272.80
2010,10,02,16,51,270.00
2010,10,02,16,52,267.80
2010,10,02,16,53,265.70
2010,10,02,16,54,264.20
2010,10,02,16,55,260.60
2010,10,02,16,56,258.10
2010,10,02,16,57,254.80
2010,10,02,16,58,252.70
2010,10,02,16,59,248.50
2010,10,02,17,00,240.40
2010,10,02,17,01,232.00
2010,10,02,17,02,176.40
2010,10,02,17,03,113.10
2010,10,02,17,04,94.30
2010,10,02,17,05,63.70
2010,10,02,17,06,48.10
2010,10,02,17,07,55.10
2010,10,02,17,08,55.70
2010,10,02,17,09,48.50
2010,10,02,17,10,43.00
2010,10,02,17,11,40.00
2010,10,02,17,12,41.50
2010,10,02,17,13,42.10
2010,10,02,17,14,40.00
2010,10,02,17,15,43.90
2010,10,02,17,16,43.10
2010,10,02,17,17,39.60
2010,10,02,17,18,39.00
2010,10,02,17,19,37.30
2010,10,02,17,20,39.00
2010,10,02,17,21,38.60
2010,10,02,17,22,36.30
2010,10,02,17,23,35.70
2010,10,02,17,24,37.00
2010,10,02,17,25,35.90